Location: Luxembourg
(49.6117°N, 6.1300°E)
Time: 17:44:23
(UTC+02:00)

ISS - Visible Passes

Search period start: 13 May 2026 00:00
Search period end: 23 May 2026 00:00
Orbit: 414 x 424 km, 51.6° (Epoch: 13 May)

Date Brightness Start Highest point End Pass type
(mag) Time Alt. Az. Time Alt. Az. Time Alt. Az.
13 May -3.3 00:08:53 10° WNW 00:12:12 60° N 00:13:26 34° ENE visible
13 May -1.3 01:45:45 10° WNW 01:46:22 15° WNW 01:46:22 15° WNW visible
13 May -3.8 21:44:15 10° WSW 21:47:36 79° SSE 21:50:56 10° ENE visible
13 May -3.2 23:21:13 10° W 23:24:31 58° N 23:27:26 13° ENE visible
14 May -2.8 00:58:06 10° WNW 01:00:22 40° WNW 01:00:22 40° WNW visible
14 May -3.3 22:33:30 10° W 22:36:49 61° N 22:40:08 10° ENE visible
15 May -3.7 00:10:27 10° WNW 00:13:48 77° NNE 00:14:19 59° E visible
15 May -3.5 23:22:47 10° WNW 23:26:07 65° N 23:28:14 20° E visible
16 May -2.0 00:59:38 10° WNW 01:01:10 23° W 01:01:10 23° W visible
16 May -3.3 22:35:05 10° WNW 22:38:24 60° N 22:41:43 10° E visible
17 May -3.7 00:11:56 10° WNW 00:15:05 63° SW 00:15:05 63° SW visible
17 May -3.9 23:24:15 10° WNW 23:27:37 86° SSW 23:29:00 32° ESE visible
18 May -1.2 01:01:25 10° W 01:01:56 13° W 01:01:56 13° W visible
18 May -3.7 22:36:34 10° WNW 22:39:55 77° NNE 22:42:56 12° E visible
19 May -2.5 00:13:31 10° W 00:15:52 29° WSW 00:15:52 29° WSW visible
19 May -3.4 23:25:43 10° WNW 23:28:56 46° SSW 23:29:48 36° SSE visible
20 May -3.7 22:37:59 10° WNW 22:41:17 65° SSW 22:43:45 17° SE visible
21 May -1.4 00:15:35 10° W 00:16:40 14° WSW 00:16:40 14° WSW visible
21 May -2.2 23:27:24 10° W 23:30:04 22° SW 23:30:38 21° SSW visible
22 May -2.7 22:39:27 10° W 22:42:29 32° SSW 22:44:38 16° SSE visible
